Simultaneous Nadir Overpasses (SNOs) Predictions

Prediction of SNOs between METOP-A and NOAA-19 Satellite Orbit:

Table of predicted SNOs for the next 14.0 days since TLE Epoch: 5/18/2012
Index Date (METOP-A) Time (METOP-A) METOP-A Lat,Lon Date (NOAA-19) Time (NOAA-19) NOAA-19 Lat,Lon Distance(km) Time Diff (sec)
1 05/26/2012 15:27:10 -73.16, 120.99 05/26/2012 15:25:55 -73.20, 120.69 10.62 75
2 05/26/2012 16:17:51 73.09, -71.84 05/26/2012 16:16:57 73.10, -71.83 1.16 54
3 05/26/2012 17:08:33 -73.09, 95.49 05/26/2012 17:07:58 -73.09, 95.42 2.17 35
4 05/26/2012 17:59:13 73.07, -97.22 05/26/2012 17:59:01 73.03, -97.21 3.50 12
5 05/26/2012 18:49:56 -73.02, 70.00 05/26/2012 18:50:02 -73.03, 70.04 1.97 6
6 05/26/2012 19:40:36 72.99,-122.72 05/26/2012 19:41:06 73.02,-122.71 3.07 30
7 05/26/2012 20:31:18
